Tracking 22925 objects as of 6-May-2021
HD Live streaming from Space Station
objects crossing your sky now

THORAD AGENA D DEB

Track THORAD AGENA D DEB now!
10-day predictions


NORAD ID: 4651
Int'l Code: 1970-025AK
Perigee: 876.5 km
Apogee: 948.4 km
Inclination: 100.1 °
Period: 103.1 minutes
Semi major axis: 7283 km
RCS: 0.047 m2 (small)
Launch date: April 8, 1970
Source: United States (US)
Launch site: AIR FORCE WESTERN TEST RANGE (AFWTR)

Note: This is SATELLITE DEBRIS
aabbcc
Your satellite tracking list
Your tracking list is empty




NASA's NSSDC Master Catalog

Two Line Element Set (TLE):
1 04651U 70025AK  21125.45715715  .00000641  00000-0  49511-3 0  9990
2 04651 100.1151 214.5127 0049380  16.5914 343.6848 13.96690445574367
Source of the keplerian elements: AFSPC